Regional Weather Roundup
Issued by NWS Newport/Morehead, NC

Current Version | Previous Version | Graphics & Text | Print | Product List | Glossary Off
Versions: 1 2 3 4 5 6 7 8 9 10 11 12 13 14 15 16 17 18 19 20 21 22 23 24 25 26 27 28 29 30 31 32 33 34 35 36 37 38 39 40 41 42 43 44 45 46 47 48 49 50

000
ASUS42 KMHX 241824
RWRMHX
WEATHER ROUNDUP FOR EASTERN NORTH CAROLINA
NATIONAL WEATHER SERVICE NEWPORT/MOREHEAD CITY NC
200 PM EDT SUN MAY 24 2015

NOTE: "FAIR" INDICATES FEW OR NO CLOUDS BELOW 12,000 FEET
WITH NO SIGNIFICANT WEATHER AND/OR OBSTRUCTIONS TO VISIBILITY

NCZ015>017-031-032-045>047-102-103-241900-
NORTH COAST

CITY           SKY/WX    TMP DP  RH WIND       PRES   REMARKS
EDENTON          N/A     78  56  46 W5        30.38F
ELIZABETH CITY SUNNY     77  58  51 E12       30.39F
KITTY HAWK     CLEAR     72  48  42 E8        30.40F
MANTEO         SUNNY     73  55  51 E8        30.40F

$$

NCZ045>047-081-094-103-104-241900-
CENTRAL COAST

CITY           SKY/WX    TMP DP  RH WIND       PRES   REMARKS
FRISCO         SUNNY     76  59  55 SE8       30.41F
SWANQUARTER      N/A     79 N/A N/A S10       30.36S

$$

NCZ095-097-098-100-101-241900-
SOUTHERN COAST

CITY           SKY/WX    TMP DP  RH WIND       PRES   REMARKS
BEAUFORT       SUNNY     77  55  46 SE10      30.39F
CEDAR ISLAND     N/A     75 N/A N/A NE5       30.44S
JACKSONVILLE   SUNNY     80  53  39 SE10      30.39S
PINEY ISLAND   CLEAR    N/A N/A N/A E9        30.39F
WILMINGTON     MOSUNNY   79  55  43 SE12      30.39F


$$

NCZ011>013-027>030-043-044-078>080-089-090>093-098-241900-
COASTAL PLAIN

CITY           SKY/WX    TMP DP  RH WIND       PRES   REMARKS
AHOSKIE        MOSUNNY   79  56  45 SE7       30.38F
CLINTON        SUNNY     82  57  42 SE3       30.37F
ELIZABETHTOWN  PTSUNNY   82  51  34 E5        30.36F
GOLDSBORO      MOSUNNY   81  55  40 VRB1      30.35F
GREENVILLE     MOSUNNY   81  55  41 CALM      30.38F
HAVELOCK       CLOUDY    78  58  49 NE8       30.40S
KENANSVILLE    MOSUNNY   80  49  33 SE3       30.38F
KINSTON        MOSUNNY   82  54  36 SE8       30.39F
NEW BERN       SUNNY     81  51  35 SE5       30.40F
RICHLANDS      MOSUNNY   81  54  39 S9        30.38F
ROCKY MOUNT    MOSUNNY   81  54  39 SW8       30.38F
WASHINGTON     SUNNY     79  54  42 SE5       30.39S
WHITEVILLE     PTSUNNY   79  56  44 SE7       30.36F

$$

AMZ130-135-150-152-154-156-158-170-250-252-270-ANZ085-086-088-633-658-670-241900-
MARINE OBSERVATIONS

STATION/POSITION TIME  TEMP    WIND        PRES    WAVE   SWELL
                       AIR SEA DIR/SP/G            HT/PER HT/PER
                 (UTC) (F)     (DEG/KT/KT) (MB)    (FT/S) (FT/S)
CHESAPEAKE LIGHT 1800   63     150/ 16/ 17 1029.6
64 E VA BEACH    1750   64 62  140/  6/  6 1029.6    2/ 7   2/ 7
DUCK             1800   67 63  130/ 11/ 12 1028.5
2 E DUCK         1711      65                N/A     2/ 5
OREGON INLET     1800   71 70   90/  8/ 13 1029.6
13E OREGON INLT  1800      66                N/A     2/ 6
HATTERAS CG      1800   73 73  120/  6/  9 1029.2
DIAMOND BUOY     1750   73 78   50/  4/  6 1029.6    2/ 7   2/ 7
CAPE LOOKOUT     1800   74      60/  7/  8 1029.0
BEAUFORT LAB     1800   75 74  130/  9/ 12 1028.4
27 SE WRIGHTSVLE 1800   72 77  110/ 10/ 12   N/A
5 SE WRIGHTSVLE  1708   75 76  120/  8/ 12 1029.1
225 S CAPE HAT   1750   72 74   70/ 17/ 21 1028.4    6/ 7   2/13
41 SE CHARLESTON 1750   76 75   80/ 16/ 17 1026.9    4/ 8   2/ 8

$$


USA.gov is the U.S. government's official web portal to all federal, state and local government web resources and services.